Miscellaneous Local Product
Issued by NWS Hastings, NE

Home | Current Version | Previous Version | Graphics & Text | Print | Product List | Glossary On
Versions: 1 2 3 4 5 6 7 8 9 10 11 12 13 14 15 16 17 18 19 20 21 22 23 24 25 26 27 28 29 30 31 32 33 34 35 36 37 38 39 40 41 42 43 44 45 46 47 48 49 50
000
AXUS43 KGID 291202
MISGRI

GID CWA HOURLY WEATHER ROUNDUP
NATIONAL WEATHER SERVICE HASTINGS NE
700 AM CDT TUE JUL 29 2014

NOTE: "FAIR" INDICATES FEW OR NO CLOUDS BELOW 12,000 FEET WITH NO
SIGNIFICANT WEATHER AND/OR OBSTRUCTIONS TO VISIBILITY.

...SOUTH CENTRAL NEBRASKA...

CITY           SKY/WX    TMP DP  RH WIND       PRES   REMARKS
GRAND ISLAND   LGT RAIN  64  60  87 CALM      30.24S
HASTINGS       CLOUDY    64  56  75 CALM      30.24R
KEARNEY        CLOUDY    61  55  82 NE5       30.24S
ORD            MOCLDY    60  58  92 CALM      30.23S
YORK           CLOUDY    61  61 100 CALM      30.23R
AURORA         CLOUDY    63  61  94 CALM      30.24R
LEXINGTON      PTCLDY    58  56  94 E3        30.24S FOG
HOLDREGE       PTCLDY    59  56  91 E6        30.23S
HEBRON         CLOUDY    63  56  77 CALM      30.21S

...NEBRASKA PANHANDLE...

CITY           SKY/WX    TMP DP  RH WIND       PRES   REMARKS
CHADRON        PTCLDY    60  54  80 CALM      30.23S
ALLIANCE       CLEAR     58  56  93 E8        30.24R
SCOTTSBLUFF    CLEAR     58  57  97 E5        30.22S
SIDNEY         CLEAR     56  53  90 E7        30.23R

...WESTERN AND NORTH CENTRAL NEBRASKA...

CITY           SKY/WX    TMP DP  RH WIND       PRES   REMARKS
VALENTINE      MOCLDY    55  52  89 CALM      30.25S
AINSWORTH      MOCLDY    56  55  98 S7        30.25S
ONEILL         CLEAR     54  50  86 CALM      30.24S
BROKEN BOW     LGT RAIN  61  58  90 E5        30.24S
IMPERIAL       CLEAR     58  55  90 E8        30.21R
NORTH PLATTE   CLEAR     57  55  93 E7        30.24R FOG
MCCOOK         CLEAR     58  55  90 E7        30.21R

...EASTERN NEBRASKA...

CITY           SKY/WX    TMP DP  RH WIND       PRES   REMARKS
NORFOLK        CLEAR     53  51  93 W3        30.23R
SO SIOUX CITY  CLEAR     54  53  97 W5        30.21R FOG
TEKAMAH        CLEAR     56  53  90 NW5       30.21R
ALBION         CLEAR     51  50  95 NW3       30.24R FOG
OMAHA EPPLEY   PTCLDY    59  56  89 N3        30.21R
OFFUTT AFB     CLEAR     55  55 100 NW3       30.20R
MILLARD        CLEAR     58  56  92 CALM      30.20S
LINCOLN        PTCLDY    58  53  84 NW3       30.22S
NEBRASKA CITY  CLEAR     56  56 100 NW5       30.20R
BEATRICE       MOCLDY    58  56  92 CALM      30.21S
FALLS CITY     CLEAR     55  53  93 NW3       30.19R

...NORTHERN KANSAS...

CITY           SKY/WX    TMP DP  RH WIND       PRES   REMARKS
GOODLAND       CLEAR     59  58  96 S7        30.20S
HILL CITY      CLEAR     60  55  83 E7        30.20S
NORTON         SUNNY     59  52  77 E6        30.21R
PHILLIPSBURG   CLEAR     59  55  88 E5        30.20S
SMITH CENTER   PTCLDY    61  55  82 E7        30.21S
HAYS           CLEAR     61  52  72 E8        30.20S
RUSSELL        CLEAR     61  55  81 SE7       30.19R
CONCORDIA      MOCLDY    64  59  83 CALM      30.21R
SALINA         MOCLDY    67  57  70 CALM      30.20S
TOPEKA         CLOUDY    63  59  87 CALM      30.19S



USA.gov is the U.S. government's official web portal to all federal, state and local government web resources and services.